Flag for Germany Weather past 2 weeks in Hof (Saale), Bavaria, Germany

Now
36 °F

Low clouds.


Feels Like: 33 °F
Forecast: 36 / 46 °F
Wind: 5 mph from West

Location: Hof

Current Time: Mar 27, 2015 at 6:50:09 AM

Latest Report: Mar 27, 2015 at 6:00 AM


Visibility: 3 mi

Pressure: 29.90 "Hg

Humidity: 97%

Dew point: 36 °F

Location of Hof (Saale)Location

Historic Weather in Hof (Saale) — Graph

°F

Hof (Saale) temperature yesterday

Maximum temperature yesterday: 48 °F (at 1:00 AM)
Minimum temperature yesterday: 40 °F (at 11:00 PM)
Average temperature yesterday: 43 °F

Past Weeks' High & Low Weather Summary

 TemperatureHumidityPressure
High61 °F (Mar 25, 3:00 PM)100% (Mar 13, 7:00 AM)30.47 "Hg (Mar 13, 7:00 AM)
Low25 °F (Mar 23, 6:00 AM)26% (Mar 20, 5:00 PM)29.59 "Hg (Mar 25, 3:00 PM)
Average39 °F80%30.15 "Hg
* Reported Mar 12 6:00 AM — Mar 27 6:00 AM, Hof (Saale), Weather by CustomWeather, © 2015

Note: Actual official high and low records may vary slightly from our data, if they occured in-between our weather recording intervals... More about our weather records

Advertising

Hof (Saale) weather history for previous 24 hours

 ConditionsComfort  
Time TempWeatherWind HumidityBarometerVisibility
6:00 AM
Fri, Mar 27
36 °FLow clouds.5 mph97%29.90 "Hg3 mi
5:00 AM37 °FDrizzle. Low clouds.5 mph94%29.88 "Hg5 mi
3:00 AM36 °FLight rain. Low clouds.3 mph93%29.86 "Hg5 mi
2:00 AM36 °FLight freezing rain. Low clouds.3 mph95%29.85 "Hg4 mi
1:00 AM37 °FDrizzle. Overcast.5 mph89%29.84 "Hg4 mi
12:00 AM39 °FFog.5 mph82%29.83 "Hg4 mi
11:00 PM
Thu, Mar 26
40 °FOvercast.3 mph84%29.83 "Hg3 mi
10:00 PM40 °FOvercast.2 mph88%29.82 "Hg2 mi
9:00 PM41 °FPassing clouds.3 mph90%29.81 "Hg2 mi
8:00 PM41 °FOvercast.3 mph88%29.80 "Hg2 mi
7:00 PM42 °FFog.2 mph85%29.79 "Hg3 mi
6:00 PM42 °FFog.3 mph88%29.79 "Hg2 mi
5:00 PM42 °FFog.5 mph90%29.78 "Hg2 mi
3:00 PM42 °FLow clouds.3 mph91%29.78 "Hg2 mi
2:00 PM42 °FDrizzle. Low clouds.3 mph97%29.77 "Hg1 mi
1:00 PM42 °FFog.2 mph93%29.77 "Hg1 mi
12:00 PM42 °FFog.1 mph93%29.77 "Hg1 mi
11:00 AM41 °FFog.2 mph96%29.77 "Hg1 mi
9:00 AM40 °FFog.3 mph97%29.75 "Hg1 mi
8:00 AM41 °FFog.3 mph96%29.73 "Hg1 mi
7:00 AM41 °FLow clouds.3 mph97%29.71 "Hg1 mi
6:00 AM42 °FOvercast.5 mph94%29.69 "Hg1 mi
Weather by CustomWeather, © 2015

See weather overviewHow to use our weather pages